Regional Weather Roundup
Issued by NWS

Home | Current Version | Previous Version | Graphics & Text | Print | Product List | Glossary Off
Versions: 1 2 3 4 5 6 7 8 9 10 11 12 13 14 15 16 17 18 19 20 21 22 23 24 25 26 27 28 29 30 31 32 33 34 35 36 37 38 39 40 41 42 43 44 45 46 47 48 49 50

113
ASUS43 KDMX 190506
RWRIA

WEATHER ROUNDUP FOR IOWA
NATIONAL WEATHER SERVICE DES MOINES IA
1100 PM CST SUN FEB 18 2018

NOTE: "FAIR" INDICATES FEW OR NO CLOUDS BELOW 12,000 FEET WITH NO
SIGNIFICANT WEATHER AND/OR OBSTRUCTIONS TO VISIBILITY.

* - THESE STATIONS ARE NOT NWS STATIONS...THUS NOT UNDER NWS
QUALITY CONTROL.  THEY ALSO DO NOT REPORT WEATHER SUCH
AS PRECIPITATION OR FOG.

IAZ001>003-012>014-020>022-031>034-043>046-190600-
   NORTHWEST IOWA

CITY           SKY/WX    TMP DP  RH WIND       PRES   REMARKS
CARROLL *      CLOUDY    36  32  87 S5        29.64S WCI  32
CHEROKEE *     CLOUDY    33  28  83 N13       29.68R WCI  23
DENISON *      CLOUDY    41  34  75 CALM      29.66R
LE MARS *      MOCLDY    28  25  86 N18G25    29.70R WCI  16
ORANGE CITY *  CLEAR     28  27  93 N15G24    29.70R WCI  17
SHELDON *      CLOUDY    25  23  93 N23       29.69R WCI  10
SIOUX CITY     CLOUDY    31  28  89 NW13      29.70R WCI  21
SPENCER        CLEAR     28  22  78 N21G29    29.69R WCI  15
STORM LAKE *   CLOUDY    34  30  86 N17       29.65S WCI  23
$$

IAZ055>058-069>071-079>083-090>094-190600-
   SOUTHWEST IOWA

CITY           SKY/WX    TMP DP  RH WIND       PRES   REMARKS
ATLANTIC *     CLOUDY    45  39  81 S7        29.65R
AUDUBON *      CLOUDY    45  37  76 S6        29.66R
CLARINDA *     CLOUDY    48  41  76 CALM      29.68F
COUNCIL BLFS * CLOUDY    45  45 100 N8        29.63S
CRESTON *      CLOUDY    46  34  61 SE9       29.69R
HARLAN  *      CLOUDY    39  37  93 W7        29.68R WCI  34
LAMONI         CLOUDY    48  32  53 S7        29.69F
RED OAK *      CLOUDY    48  39  71 S6        29.65F
SHENANDOAH *   CLOUDY    50  43  76 SE7       29.65F
$$

IAZ047>049-059>061-072>074-084-190600-
   CENTRAL IOWA

CITY           SKY/WX    TMP DP  RH WIND       PRES   REMARKS
AMES           MOCLDY    39  30  70 SE7       29.67F WCI  34
ANKENY *       CLOUDY    43  32  65 S7        29.69S
BOONE *        CLOUDY    39  32  75 SE5       29.66S
CHARITON *     CLOUDY    46  34  61 S12       29.70S
DES MOINES     CLOUDY    45  33  63 S8        29.68F
GRINNELL*      CLOUDY    41  32  69 SE8       29.72S
KNOXVILLE *    CLOUDY    45  30  57 SE7       29.70S
MARSHALLTOWN   CLOUDY    38  32  79 SE8       29.70R WCI  32
NEWTON *       CLOUDY    39  32  75 S8        29.70S WCI  34
PELLA *        CLOUDY    46  32  58 SE7       29.72S
PERRY *        FAIR      37  32  81 S5        29.66S WCI  33
$$

IAZ004>006-015-016-023>025-035-036-190600-
   NORTH CENTRAL IOWA

CITY           SKY/WX    TMP DP  RH WIND       PRES   REMARKS
ALGONA *       CLOUDY    34 N/A N/A N9G16     29.69R WCI  26
CLARION *      CLOUDY    39  39 100 S10       29.66S WCI  32
ESTHERVILLE    CLEAR     27  22  81 N18       29.70R WCI  14
FORT DODGE *   CLOUDY    42  31  64 S6        29.66S
MASON CITY     CLOUDY    36  30  79 S8        29.68S WCI  30
FOREST CITY *  CLOUDY    37  32  81 N6G17     29.68R WCI  33
WEBSTER CITY * CLOUDY    39  32  75 S10       29.65S WCI  32
IOWA FALLS *   CLOUDY    37  32  81 SE9       29.69S WCI  31
$$

IAZ007>011-017>019-026>030-037>042-050>054-066-190600-
   NORTHEAST IOWA

CITY           SKY/WX    TMP DP  RH WIND       PRES   REMARKS
CEDAR RAPIDS   CLOUDY    41  30  65 S10       29.74S
CHARLES CITY * CLOUDY    37  34  87 SE12      29.70R WCI  30
CLINTON *      CLOUDY    39  32  76 S13       29.81  WCI  31
DECORAH *      CLOUDY    37  30  75 S9        29.71S WCI  31
DUBUQUE        CLOUDY    36  29  75 S16       29.78F WCI  26
MONTICELLO *   CLOUDY    39  32  75 SE10      29.77S WCI  32
OELWEIN *      CLOUDY    36  36 100 SE13      29.73S WCI  27
WATERLOO       CLOUDY    38  30  73 S10       29.71S WCI  31
$$

IAZ064-065-067-068-078-190600-
   EAST CENTRAL IOWA

CITY           SKY/WX    TMP DP  RH WIND       PRES   REMARKS
DAVENPORT      CLOUDY    43  31  62 S20       29.81F
IOWA CITY      CLOUDY    40  30  67 SE6       29.78F
MT. PLEASANT * CLOUDY    41  30  65 S12       29.78S
MUSCATINE *    CLOUDY    41  30  65 S12       29.79F
QUAD CITIES    CLOUDY    43  32  65 S12       29.79F
$$

IAZ062-063-075>077-085>089-095>099-190600-
   SOUTHEAST IOWA

CITY           SKY/WX    TMP DP  RH WIND       PRES   REMARKS
BURLINGTON     CLOUDY    44  31  60 S9        29.80F
FAIRFIELD *    CLOUDY    43  28  56 S9        29.75S
FORT MADISON * CLOUDY    43  34  70 SE7       29.81S
KEOKUK *       CLOUDY    46  30  53 S6        29.80S
OSKALOOSA *    CLOUDY    39  31  73 SE10      29.73S WCI  32
OTTUMWA        CLOUDY    46  28  49 S13       29.73S
WASHINGTON *   CLOUDY    41  34  75 SE10      29.77S
$$

ABBREVIATIONS USED IN REMARKS
   TC - TEMPERATURES IN CELSIUS
  WCI - WIND CHILL INDEX
   HX - HEAT INDEX
  VSB - VISIBILITY
$$





USA.gov is the U.S. government's official web portal to all federal, state and local government web resources and services.